Theta_e
332 337 338 337 336 337 336 336 337 337 339 341 341 335 336 334 335 336 338 334 336 332 330 330 328 332 330 331 333 331 328 328 327 326 326 326 328 328 329 330 330 329 330
328 333 334 335 333 332 333 334 335 337 337 336 337 339 337 335 332 334 329 337 332 332 330 329 328 329 329 328 330 329 328 329 328 326 322 318 318 322 323 325 326 326 328
322 326 327 329 328 328 330 330 332 334 335 335 333 334 337 336 334 333 333 332 333 332 331 332 328 332 329 327 327 329 330 328 326 328 324 314 312 313 316 319 321 325 324
322 322 323 325 326 327 328 329 329 330 333 334 333 329 329 331 333 332 332 331 333 334 333 334 335 331 334 331 329 329 332 331 327 324 327 322 319 313 311 315 317 317 320
322 321 322 323 326 327 325 325 325 325 328 330 330 329 325 328 331 332 331 334 334 333 332 329 330 328 330 334 332 332 332 331 329 324 322 321 319 318 315 312 309 313 314
321 321 320 321 320 322 322 322 321 323 324 325 327 326 324 323 323 324 324 323 324 326 327 327 326 326 327 330 331 331 330 329 328 325 322 319 317 314 313 312 312 311 312
316 317 316 316 318 318 319 321 319 318 320 319 320 324 324 325 323 321 322 320 319 320 323 322 324 324 325 325 326 325 325 325 322 321 321 319 319 319 317 314 311 308 308
313 315 316 316 316 316 316 317 317 317 318 317 315 316 319 322 323 322 321 319 318 318 319 321 322 322 322 323 322 321 320 319 319 320 320 320 319 317 316 310 307 304 305
309 310 311 312 313 314 314 313 314 315 317 317 315 313 315 318 318 321 321 320 319 320 319 318 317 321 320 315 314 314 314 314 314 313 313 314 315 315 311 311 310 306 300
308 309 310 311 313 312 311 313 314 313 314 315 314 313 313 316 316 318 318 319 320 320 320 317 316 315 315 315 314 313 314 313 312 312 310 307 305 304 304 302 300 300 299
307 309 309 311 312 309 309 309 311 310 310 313 313 311 312 314 315 315 317 318 318 319 319 320 320 318 314 313 313 311 313 312 309 309 307 304 305 302 301 298 297 296 298
306 309 310 308 307 307 306 307 308 309 311 312 312 311 312 313 313 315 316 317 317 317 316 318 308 306 306 305 306 310 310 307 305 305 303 302 301 296 295 294 292 293 293
305 306 305 303 304 304 305 307 308 310 311 311 312 312 313 314 314 314 315 316 312 307 307 306 305 304 305 304 305 308 307 304 303 301 298 296 295 292 292 291 290 290 292
301 301 302 302 302 303 304 308 310 311 310 311 312 311 311 312 313 314 313 307 304 302 303 302 302 303 304 305 305 307 304 303 301 300 298 297 295 293 292 291 289 289 288
301 301 301 301 301 302 306 310 310 311 311 311 310 309 310 312 313 312 306 305 304 303 302 301 301 302 304 305 306 306 304 302 300 300 299 297 299 300 298 292 288 287 286
301 303 303 304 302 305 308 310 311 311 310 309 308 309 309 311 308 306 303 301 300 299 299 298 299 299 301 303 306 304 301 300 298 294 293 294 295 293 298 299 300 292 287
302 302 303 303 303 308 310 308 310 310 309 308 308 309 310 309 308 305 302 299 297 297 296 296 297 296 297 300 301 300 298 296 293 291 290 291 292 291 289 293 295 296 297
302 303 303 303 308 308 309 310 311 309 307 306 306 308 309 308 308 304 300 297 297 296 295 295 295 294 295 297 298 297 294 292 291 290 288 287 287 290 289 288 287 288 289
303 304 307 308 308 307 309 311 310 307 305 304 306 306 304 303 303 304 300 298 296 295 295 295 293 291 292 296 296 294 292 291 291 291 288 288 287 294 294 287 286 287 292
305 306 308 311 309 311 310 310 307 304 302 303 303 302 301 299 299 301 301 300 298 295 294 292 292 295 291 295 295 293 290 288 290 291 291 294 292 295 294 287 286 289 292
307 307 307 306 306 308 308 307 305 301 304 302 300 298 296 295 296 299 299 295 294 294 290 288 288 288 291 291 295 296 294 293 292 292 292 291 295 294 294 293 289 292 296
304 305 303 303 306 306 308 307 302 303 303 300 296 294 293 293 295 295 296 299 295 291 287 286 287 288 288 294 295 295 295 296 293 288 288 289 294 294 294 295 296 296 297
303 304 302 302 305 307 309 306 304 303 300 295 294 295 295 294 294 293 290 290 289 287 287 286 289 290 292 294 295 295 295 296 294 293 295 295 294 295 296 296 297 297 296
304 303 302 302 306 308 310 307 305 302 296 293 292 295 294 293 292 291 290 287 286 286 287 290 291 293 293 293 294 295 294 293 292 293 292 295 296 296 297 297 298 298 300
304 304 304 303 302 307 310 306 304 300 295 293 295 295 294 294 293 290 288 289 291 291 292 292 293 293 293 294 293 294 294 291 294 295 294 294 293 294 295 296 297 298 299
304 304 303 303 302 307 309 306 304 300 297 297 296 295 295 294 293 291 291 294 293 293 292 292 293 297 294 293 293 293 293 293 293 295 293 293 293 293 294 294 295 297 298
Wind_Speed
8 12 13 17 20 22 22 20 20 16 14 12 11 3 6 9 9 8 18 11 4 11 14 11 9 6 9 9 3 2 4 4 4 1 2 3 6 7 9 7 7 8 11
13 14 17 18 19 17 17 17 16 15 11 8 8 5 1 5 11 11 11 15 13 10 9 14 5 18 10 7 6 5 3 3 6 3 1 2 3 4 6 6 6 7 6
7 15 18 16 16 17 16 14 14 12 11 8 3 4 3 0 2 3 7 7 9 9 11 13 13 13 5 3 4 6 8 5 4 7 4 2 3 2 1 3 2 4 4
6 11 9 9 9 9 8 8 8 10 10 10 8 7 2 2 1 2 2 4 4 6 7 11 8 6 6 7 8 8 7 4 4 2 4 0 3 3 2 2 2 2 4
4 9 7 5 4 4 5 6 6 7 7 7 7 5 5 3 5 4 4 2 2 3 5 6 6 7 5 5 6 4 4 3 3 3 3 2 2 1 1 1 4 3 3
5 3 3 3 4 6 7 7 8 7 8 7 7 7 5 0 2 3 3 3 3 4 4 7 5 6 5 4 3 3 3 3 3 3 3 3 3 2 2 2 3 3 2
1 1 3 6 10 9 8 7 8 7 7 6 7 6 6 5 4 4 4 4 3 3 4 5 6 6 5 5 3 2 1 2 2 3 3 2 2 3 2 2 0 2 1
4 3 4 7 8 8 7 8 8 8 9 8 9 7 7 4 4 4 4 4 3 4 3 4 4 5 5 3 1 1 1 3 3 5 3 2 2 2 2 3 3 1 2
3 7 7 6 6 7 8 7 8 8 8 9 8 9 8 9 8 8 5 4 6 3 4 4 2 4 1 1 1 2 3 4 4 4 4 3 2 2 2 1 1 3 3
6 4 5 7 7 6 7 8 8 8 7 8 7 7 8 7 7 7 6 6 7 5 4 3 3 2 3 2 2 3 3 5 3 3 5 5 4 5 4 4 4 2 3
5 5 5 4 5 7 7 8 8 8 8 8 7 8 8 8 8 7 9 6 6 7 6 4 1 1 5 5 4 4 3 5 6 7 9 9 6 4 4 4 4 4 3
3 3 4 6 7 7 7 7 7 7 7 7 7 8 7 7 8 10 10 10 8 4 4 4 12 11 9 9 9 7 6 8 9 9 9 9 7 7 6 4 5 5 4
6 6 6 6 7 8 7 7 6 7 8 9 10 11 13 12 12 11 11 10 8 9 10 11 11 10 7 10 11 11 10 10 10 10 9 7 7 6 4 4 4 4 3
6 6 8 8 7 6 5 5 6 6 7 9 10 13 14 14 13 10 10 11 10 10 11 11 10 9 8 8 10 11 9 8 9 9 10 8 8 6 5 4 4 3 3
9 8 8 8 6 5 5 7 7 7 7 9 11 13 15 14 11 10 12 11 12 12 12 11 10 9 7 4 7 9 7 6 7 8 10 8 11 12 8 2 2 3 3
9 10 11 10 8 7 6 7 8 9 7 10 12 13 14 16 16 14 15 15 14 13 13 13 11 10 7 10 8 9 7 8 6 8 8 7 10 10 10 9 8 4 3
9 10 9 8 6 5 7 7 7 6 9 10 12 12 11 13 12 12 13 13 13 12 13 12 10 10 9 17 14 16 8 8 8 7 6 6 7 7 5 8 9 8 8
9 9 8 6 5 4 6 5 6 8 9 11 12 12 10 10 9 12 11 11 9 10 9 9 10 10 11 18 15 16 9 8 6 6 6 6 6 5 5 5 6 5 3
6 3 3 3 6 7 6 4 6 8 10 11 10 11 11 11 11 9 10 8 8 9 8 8 9 9 10 17 15 10 6 5 6 4 1 5 5 7 7 6 5 5 3
4 7 7 5 7 8 5 5 9 8 9 9 9 10 10 10 9 7 8 7 7 8 7 8 9 16 11 19 16 9 4 4 2 4 5 8 6 7 7 5 4 5 5
7 7 7 6 6 7 6 6 6 6 4 5 9 10 10 9 9 7 7 5 5 6 6 6 6 7 9 8 13 12 5 3 3 4 4 4 8 8 8 5 2 3 6
7 8 7 7 7 7 4 5 5 3 4 7 9 9 9 8 7 8 7 5 7 7 7 6 5 5 6 12 12 12 10 8 3 2 2 3 9 9 7 5 10 10 7
6 6 7 8 8 6 3 4 4 5 4 8 7 8 8 9 8 9 8 6 6 5 5 4 5 5 6 6 13 13 12 11 5 3 5 7 8 8 6 12 11 8 4
7 6 8 8 8 9 5 6 6 4 5 7 6 6 9 10 9 7 6 5 4 4 4 5 6 5 5 6 6 6 6 9 6 6 4 6 8 9 7 6 7 5 4
9 6 6 8 7 7 7 6 5 5 6 6 5 4 4 7 8 6 4 3 3 3 4 4 4 5 5 5 6 5 4 4 7 7 6 6 5 6 6 5 6 5 6
9 6 7 7 8 6 8 5 4 4 6 5 3 3 3 3 4 3 4 5 5 6 7 7 5 3 6 10 11 11 10 10 9 3 3 4 4 5 5 5 5 5 6
Wind_Direction
22 38 47 41 36 34 33 24 34 24 27 11 358 354 95 57 20 33 347 344 174 37 349 278 290 268 268 260 264 238 205 204 173 202 228 227 221 227 237 249 250 246 246
28 31 39 40 39 37 37 23 28 20 33 26 18 22 169 137 201 238 229 266 284 247 215 250 266 247 226 228 232 226 228 198 178 193 95 295 311 248 237 243 237 238 232
345 49 40 39 43 38 33 32 16 23 24 22 13 346 340 8 236 224 226 237 262 233 247 228 225 263 229 269 236 215 218 222 189 191 163 183 247 19 309 254 229 234 222
332 68 61 48 47 43 38 37 31 12 15 21 34 38 33 47 5 348 312 278 258 273 277 268 277 255 252 260 262 228 214 188 199 154 213 196 137 181 287 306 277 258 224
7 51 43 35 55 55 45 31 32 34 2 17 42 47 32 354 347 345 329 305 286 260 300 301 314 310 321 312 257 235 179 169 167 156 141 142 129 166 150 271 320 336 19
68 23 20 321 52 40 28 19 15 9 359 4 7 24 38 74 307 302 294 294 289 286 303 308 307 298 297 297 291 278 234 194 188 157 152 145 149 153 160 206 241 267 21
83 243 8 14 37 21 5 6 7 359 350 357 358 352 353 332 311 262 264 294 289 291 303 320 318 312 308 321 341 344 122 148 133 139 126 123 129 131 159 134 199 261 353
240 36 0 36 21 359 358 358 358 349 346 350 348 347 335 307 297 284 274 269 260 264 270 291 291 295 305 320 21 98 113 122 114 119 127 114 139 126 96 136 148 224 288
26 27 20 11 344 329 328 338 334 331 336 337 340 338 334 332 329 303 267 274 277 231 214 223 250 279 316 334 149 166 134 108 98 106 110 106 92 92 122 177 193 171 189
29 11 9 358 335 346 323 329 335 330 316 324 333 337 321 322 321 321 297 265 271 287 271 204 167 310 285 228 204 194 149 117 109 126 97 73 64 69 67 75 67 59 157
31 16 351 324 302 329 349 338 337 335 343 338 330 329 327 328 326 333 319 287 266 255 260 291 263 82 346 335 318 275 168 110 99 92 92 83 78 71 65 55 64 56 45
337 310 303 310 303 309 325 335 343 352 329 314 322 322 319 328 329 325 323 322 301 310 279 59 70 37 28 20 19 9 79 90 83 71 76 78 77 67 56 62 59 65 38
346 326 318 317 328 344 338 347 346 338 336 339 340 345 344 339 332 330 328 329 45 49 63 65 66 78 37 54 16 46 35 67 83 89 90 86 83 67 57 55 68 59 53
311 325 330 318 313 333 345 339 333 342 341 350 353 353 345 333 330 331 2 50 60 63 65 65 73 64 58 46 67 67 55 49 63 83 84 79 78 81 68 48 53 74 81
328 319 311 306 334 329 346 347 355 354 354 356 1 356 348 343 338 38 47 49 56 52 48 50 42 32 23 10 93 111 97 89 82 76 70 59 54 51 48 86 68 98 73
311 327 329 340 337 359 351 350 4 6 356 5 4 1 0 15 40 53 51 46 37 39 43 33 32 31 22 23 76 86 84 84 68 62 58 45 38 33 46 47 61 124 104
323 319 319 329 5 357 355 4 7 350 11 16 5 8 9 22 56 59 65 62 57 40 38 32 20 31 27 43 66 75 72 76 64 55 44 41 33 23 23 29 46 52 42
330 332 340 354 1 356 7 17 17 6 8 23 14 8 8 13 36 79 71 75 62 54 47 33 24 28 33 41 52 68 67 68 63 55 40 43 22 9 36 33 33 3 333
307 330 8 345 341 349 353 11 28 28 26 29 24 20 17 14 16 48 75 68 68 60 49 40 26 27 32 41 47 54 52 54 51 55 130 55 24 24 40 45 23 355 329
354 352 338 345 348 348 358 33 32 36 35 28 31 19 9 19 19 39 67 69 57 53 45 36 21 36 28 29 33 38 34 45 29 32 20 33 31 15 32 49 20 353 328
337 345 351 332 329 331 7 47 55 46 6 14 42 27 20 25 21 38 71 67 63 51 42 36 18 21 22 16 26 26 27 20 26 31 7 349 4 12 13 27 328 294 319
340 351 348 331 321 329 41 88 86 61 14 47 47 39 26 29 24 30 30 63 59 53 36 29 18 3 3 24 16 23 25 23 58 39 343 334 11 8 357 356 2 1 2
342 337 330 316 319 325 17 111 105 79 56 65 48 49 38 35 29 39 35 46 41 37 25 22 19 4 4 12 13 14 15 24 37 30 24 17 6 1 5 1 359 6 3
326 313 319 321 338 343 69 100 99 101 92 79 62 53 54 51 38 39 41 45 37 31 15 20 20 11 17 13 4 15 13 8 12 13 354 15 23 23 5 358 5 5 14
326 324 330 328 332 341 92 92 116 114 98 91 77 63 52 63 66 45 31 31 21 358 13 6 358 1 3 350 357 23 14 3 10 6 12 13 357 5 6 6 11 12 17
331 336 333 329 322 349 96 109 121 136 113 112 97 72 65 67 58 62 26 23 19 3 23 23 23 10 18 14 19 20 19 17 10 7 3 1 3 10 359 4 1 10 16